Powrót do katalogu

THORAD DELTA 1 DEB

AktywnyLEO
NORAD 42622·DEBRIS·🇺🇸 United States

Wystrzelony Nov 15, 1974 z Vandenberg Space Force Base

Loading…

Następne Przeloty (najbliższe 24 godziny)

TLE

ŚwieżeSource: Space-Track

Epoka: Sep 14, 2026, 13:34 UTC

1 42622U 74089GP  26257.56561727  .00000088  00000-0  11351-2 0  9994
2 42622 101.4923  17.1760 0153417 328.5764  42.9403 12.24318715572657

Śledź THORAD DELTA 1 DEB w czasie rzeczywistym z AllMySat

Download on the App Store